Year,Month,Day,Hour,Minute,Value (Times are PST for temperature in C)
2019,04,25,00,00,6.30
2019,04,25,00,01,6.30
2019,04,25,00,02,6.40
2019,04,25,00,03,6.40
2019,04,25,00,04,6.40
2019,04,25,00,05,6.40
2019,04,25,00,06,6.40
2019,04,25,00,07,6.40
2019,04,25,00,08,6.40
2019,04,25,00,09,6.30
2019,04,25,00,10,6.30
2019,04,25,00,11,6.20
2019,04,25,00,12,6.20
2019,04,25,00,13,6.10
2019,04,25,00,14,6.00
2019,04,25,00,15,5.90
2019,04,25,00,16,5.90
2019,04,25,00,17,5.80
2019,04,25,00,18,5.80
2019,04,25,00,19,5.90
2019,04,25,00,20,5.90
2019,04,25,00,21,5.90
2019,04,25,00,22,5.90
2019,04,25,00,23,6.00
2019,04,25,00,24,6.00
2019,04,25,00,25,6.00
2019,04,25,00,26,5.90
2019,04,25,00,27,5.90
2019,04,25,00,28,5.90
2019,04,25,00,29,5.90
2019,04,25,00,30,5.80
2019,04,25,00,31,5.80
2019,04,25,00,32,5.70
2019,04,25,00,33,5.70
2019,04,25,00,34,5.70
2019,04,25,00,35,5.60
2019,04,25,00,36,5.60
2019,04,25,00,37,5.60
2019,04,25,00,38,5.50
2019,04,25,00,39,5.50
2019,04,25,00,40,5.50
2019,04,25,00,41,5.50
2019,04,25,00,42,5.40
2019,04,25,00,43,5.40
2019,04,25,00,44,5.40
2019,04,25,00,45,5.30
2019,04,25,00,46,5.30
2019,04,25,00,47,5.30
2019,04,25,00,48,5.30
2019,04,25,00,49,5.30
2019,04,25,00,50,5.30
2019,04,25,00,51,5.30
2019,04,25,00,52,5.30
2019,04,25,00,53,5.30
2019,04,25,00,54,5.30
2019,04,25,00,55,5.30
2019,04,25,00,56,5.30
2019,04,25,00,57,5.30
2019,04,25,00,58,5.30
2019,04,25,00,59,5.30
2019,04,25,01,00,5.30
2019,04,25,01,01,5.30
2019,04,25,01,02,5.30
2019,04,25,01,03,5.30
2019,04,25,01,04,5.30
2019,04,25,01,05,5.30
2019,04,25,01,06,5.30
2019,04,25,01,07,5.30
2019,04,25,01,08,5.30
2019,04,25,01,09,5.30
2019,04,25,01,10,5.30
2019,04,25,01,11,5.30
2019,04,25,01,12,5.20
2019,04,25,01,13,5.20
2019,04,25,01,14,5.20
2019,04,25,01,15,5.20
2019,04,25,01,16,5.20
2019,04,25,01,17,5.20
2019,04,25,01,18,5.20
2019,04,25,01,19,5.20
2019,04,25,01,20,5.20
2019,04,25,01,21,5.20
2019,04,25,01,22,5.20
2019,04,25,01,23,5.10
2019,04,25,01,24,5.10
2019,04,25,01,25,5.10
2019,04,25,01,26,5.10
2019,04,25,01,27,5.10
2019,04,25,01,28,5.10
2019,04,25,01,29,5.10
2019,04,25,01,30,5.10
2019,04,25,01,31,5.10
2019,04,25,01,32,5.10
2019,04,25,01,33,5.10
2019,04,25,01,34,5.10
2019,04,25,01,35,5.10
2019,04,25,01,36,5.10
2019,04,25,01,37,5.10
2019,04,25,01,38,5.00
2019,04,25,01,39,4.90
2019,04,25,01,40,4.90
2019,04,25,01,41,4.90
2019,04,25,01,42,4.90
2019,04,25,01,43,4.90
2019,04,25,01,44,4.90
2019,04,25,01,45,4.90
2019,04,25,01,46,4.90
2019,04,25,01,47,4.90
2019,04,25,01,48,4.90
2019,04,25,01,49,4.90
2019,04,25,01,50,4.90
2019,04,25,01,51,4.90
2019,04,25,01,52,4.90
2019,04,25,01,53,4.90
2019,04,25,01,54,4.90
2019,04,25,01,55,4.90
2019,04,25,01,56,4.90
2019,04,25,01,57,4.90
2019,04,25,01,58,4.90
2019,04,25,01,59,4.90
2019,04,25,02,00,5.00
2019,04,25,02,01,5.10
2019,04,25,02,02,5.10
2019,04,25,02,03,5.10
2019,04,25,02,04,5.10
2019,04,25,02,05,5.10
2019,04,25,02,06,5.00
2019,04,25,02,07,4.90
2019,04,25,02,08,4.90
2019,04,25,02,09,4.90
2019,04,25,02,10,4.90
2019,04,25,02,11,4.80
2019,04,25,02,12,4.80
2019,04,25,02,13,4.80
2019,04,25,02,14,4.70
2019,04,25,02,15,4.70
2019,04,25,02,16,4.70
2019,04,25,02,17,4.70
2019,04,25,02,18,4.70
2019,04,25,02,19,4.70
2019,04,25,02,20,4.70
2019,04,25,02,21,4.70
2019,04,25,02,22,4.70
2019,04,25,02,23,4.70
2019,04,25,02,24,4.70
2019,04,25,02,25,4.70
2019,04,25,02,26,4.70
2019,04,25,02,27,4.60
2019,04,25,02,28,4.60
2019,04,25,02,29,4.70
2019,04,25,02,30,4.70
2019,04,25,02,31,4.70
2019,04,25,02,32,4.80
2019,04,25,02,33,4.80
2019,04,25,02,34,4.80
2019,04,25,02,35,4.80
2019,04,25,02,36,4.80
2019,04,25,02,37,4.80
2019,04,25,02,38,4.80
2019,04,25,02,39,4.80
2019,04,25,02,40,4.80
2019,04,25,02,41,4.80
2019,04,25,02,42,4.70
2019,04,25,02,43,4.70
2019,04,25,02,44,4.60
2019,04,25,02,45,4.60
2019,04,25,02,46,4.60
2019,04,25,02,47,4.60
2019,04,25,02,48,4.50
2019,04,25,02,49,4.50
2019,04,25,02,50,4.50
2019,04,25,02,51,4.50
2019,04,25,02,52,4.50
2019,04,25,02,53,4.50
2019,04,25,02,54,4.40
2019,04,25,02,55,4.40
2019,04,25,02,56,4.30
2019,04,25,02,57,4.20
2019,04,25,02,58,4.20
2019,04,25,02,59,4.20
2019,04,25,03,00,4.20
2019,04,25,03,01,4.20
2019,04,25,03,02,4.20
2019,04,25,03,03,4.20
2019,04,25,03,04,4.20
2019,04,25,03,05,4.20
2019,04,25,03,06,4.20
2019,04,25,03,07,4.20
2019,04,25,03,08,4.20
2019,04,25,03,09,4.20
2019,04,25,03,10,4.20
2019,04,25,03,11,4.20
2019,04,25,03,12,4.20
2019,04,25,03,13,4.20
2019,04,25,03,14,4.20
2019,04,25,03,15,4.20
2019,04,25,03,16,4.20
2019,04,25,03,17,4.20
2019,04,25,03,18,4.20
2019,04,25,03,19,4.20
2019,04,25,03,20,4.20
2019,04,25,03,21,4.20
2019,04,25,03,22,4.20
2019,04,25,03,23,4.10
2019,04,25,03,24,4.10
2019,04,25,03,25,4.00
2019,04,25,03,26,4.00
2019,04,25,03,27,4.00
2019,04,25,03,28,4.00
2019,04,25,03,29,4.00
2019,04,25,03,30,4.00
2019,04,25,03,31,4.00
2019,04,25,03,32,4.00
2019,04,25,03,33,4.00
2019,04,25,03,34,4.00
2019,04,25,03,35,4.00
2019,04,25,03,36,4.10
2019,04,25,03,37,4.10
2019,04,25,03,38,4.20
2019,04,25,03,39,4.20
2019,04,25,03,40,4.20
2019,04,25,03,41,4.20
2019,04,25,03,42,4.30
2019,04,25,03,43,4.40
2019,04,25,03,44,4.40
2019,04,25,03,45,4.50
2019,04,25,03,46,4.50
2019,04,25,03,47,4.50
2019,04,25,03,48,4.50
2019,04,25,03,49,4.40
2019,04,25,03,50,4.40
2019,04,25,03,51,4.40
2019,04,25,03,52,4.40
2019,04,25,03,53,4.40
2019,04,25,03,54,4.40
2019,04,25,03,55,4.40
2019,04,25,03,56,4.40
2019,04,25,03,57,4.40
2019,04,25,03,58,4.40
2019,04,25,03,59,4.40
2019,04,25,04,00,4.40
2019,04,25,04,01,4.40
2019,04,25,04,02,4.40
2019,04,25,04,03,4.30
2019,04,25,04,04,4.30
2019,04,25,04,05,4.20
2019,04,25,04,06,4.20
2019,04,25,04,07,4.20
2019,04,25,04,08,4.10
2019,04,25,04,09,4.00
2019,04,25,04,10,4.00
2019,04,25,04,11,3.90
2019,04,25,04,12,3.90
2019,04,25,04,13,3.80
2019,04,25,04,14,3.80
2019,04,25,04,15,3.70
2019,04,25,04,16,3.60
2019,04,25,04,17,3.60
2019,04,25,04,18,3.50
2019,04,25,04,19,3.40
2019,04,25,04,20,3.40
2019,04,25,04,21,3.40
2019,04,25,04,22,3.40
2019,04,25,04,23,3.50
2019,04,25,04,24,3.50
2019,04,25,04,25,3.60
2019,04,25,04,26,3.70
2019,04,25,04,27,3.80
2019,04,25,04,28,3.80
2019,04,25,04,29,3.80
2019,04,25,04,30,3.80
2019,04,25,04,31,3.80
2019,04,25,04,32,3.80
2019,04,25,04,33,3.80
2019,04,25,04,34,3.80
2019,04,25,04,35,3.90
2019,04,25,04,36,3.90
2019,04,25,04,37,3.90
2019,04,25,04,38,3.80
2019,04,25,04,39,3.80
2019,04,25,04,40,3.90
2019,04,25,04,41,3.90
2019,04,25,04,42,4.00
2019,04,25,04,43,4.00
2019,04,25,04,44,4.10
2019,04,25,04,45,4.20
2019,04,25,04,46,4.30
2019,04,25,04,47,4.40
2019,04,25,04,48,4.50
2019,04,25,04,49,4.60
2019,04,25,04,50,4.60
2019,04,25,04,51,4.70
2019,04,25,04,52,4.70
2019,04,25,04,53,4.80
2019,04,25,04,54,4.80
2019,04,25,04,55,4.90
2019,04,25,04,56,4.90
2019,04,25,04,57,4.90
2019,04,25,04,58,4.90
2019,04,25,04,59,4.90
2019,04,25,05,00,4.90
2019,04,25,05,01,4.90
2019,04,25,05,02,4.90
2019,04,25,05,03,4.90
2019,04,25,05,04,4.90
2019,04,25,05,05,4.90
2019,04,25,05,06,5.00
2019,04,25,05,07,5.10
2019,04,25,05,08,5.10
2019,04,25,05,09,5.10
2019,04,25,05,10,5.10
2019,04,25,05,11,5.10
2019,04,25,05,12,5.00
2019,04,25,05,13,4.90
2019,04,25,05,14,4.90
2019,04,25,05,15,4.80
2019,04,25,05,16,4.80
2019,04,25,05,17,4.80
2019,04,25,05,18,4.80
2019,04,25,05,19,4.80
2019,04,25,05,20,4.80
2019,04,25,05,21,4.90
2019,04,25,05,22,4.90
2019,04,25,05,23,5.00
2019,04,25,05,24,5.10
2019,04,25,05,25,5.10
2019,04,25,05,26,5.10
2019,04,25,05,27,5.20
2019,04,25,05,28,5.20
2019,04,25,05,29,5.30
2019,04,25,05,30,5.30
2019,04,25,05,31,5.30
2019,04,25,05,32,5.30
2019,04,25,05,33,5.30
2019,04,25,05,34,5.30
2019,04,25,05,35,5.30
2019,04,25,05,36,5.30
2019,04,25,05,37,5.30
2019,04,25,05,38,5.30
2019,04,25,05,39,5.30
2019,04,25,05,40,5.30
2019,04,25,05,41,5.30
2019,04,25,05,42,5.30
2019,04,25,05,43,5.30
2019,04,25,05,44,5.30
2019,04,25,05,45,5.30
2019,04,25,05,46,5.30
2019,04,25,05,47,5.30
2019,04,25,05,48,5.30
2019,04,25,05,49,5.30
2019,04,25,05,50,5.30
2019,04,25,05,51,5.30
2019,04,25,05,52,5.30
2019,04,25,05,53,5.30
2019,04,25,05,54,5.30
2019,04,25,05,55,5.30
2019,04,25,05,56,5.30
2019,04,25,05,57,5.30
2019,04,25,05,58,5.30
2019,04,25,05,59,5.30
2019,04,25,06,00,5.30
2019,04,25,06,01,5.30
2019,04,25,06,02,5.30
2019,04,25,06,03,5.30
2019,04,25,06,04,5.30
2019,04,25,06,05,5.30
2019,04,25,06,06,5.30
2019,04,25,06,07,5.30
2019,04,25,06,08,5.30
2019,04,25,06,09,5.30
2019,04,25,06,10,5.30
2019,04,25,06,11,5.40
2019,04,25,06,12,5.40
2019,04,25,06,13,5.40
2019,04,25,06,14,5.50
2019,04,25,06,15,5.50
2019,04,25,06,16,5.60
2019,04,25,06,17,5.70
2019,04,25,06,18,5.70
2019,04,25,06,19,5.70
2019,04,25,06,20,5.70
2019,04,25,06,21,5.80
2019,04,25,06,22,5.80
2019,04,25,06,23,5.80
2019,04,25,06,24,5.80
2019,04,25,06,25,5.80
2019,04,25,06,26,5.80
2019,04,25,06,27,5.80
2019,04,25,06,28,5.80
2019,04,25,06,29,5.80
2019,04,25,06,30,5.80
2019,04,25,06,31,5.80
2019,04,25,06,32,5.80
2019,04,25,06,33,5.80
2019,04,25,06,34,5.80
2019,04,25,06,35,5.80
2019,04,25,06,36,5.80
2019,04,25,06,37,5.80
2019,04,25,06,38,5.80
2019,04,25,06,39,5.80
2019,04,25,06,40,5.80
2019,04,25,06,41,5.80
2019,04,25,06,42,5.80
2019,04,25,06,43,5.70
2019,04,25,06,44,5.70
2019,04,25,06,45,5.70
2019,04,25,06,46,5.70
2019,04,25,06,47,5.70
2019,04,25,06,48,5.70
2019,04,25,06,49,5.70
2019,04,25,06,50,5.70
2019,04,25,06,51,5.70
2019,04,25,06,52,5.60
2019,04,25,06,53,5.60
2019,04,25,06,54,5.50
2019,04,25,06,55,5.50
2019,04,25,06,56,5.50
2019,04,25,06,57,5.50
2019,04,25,06,58,5.60
2019,04,25,06,59,5.70
2019,04,25,07,00,5.70
2019,04,25,07,01,5.70
2019,04,25,07,02,5.80
2019,04,25,07,03,5.80
2019,04,25,07,04,5.90
2019,04,25,07,05,6.00
2019,04,25,07,06,6.10
2019,04,25,07,07,6.10
2019,04,25,07,08,6.20
2019,04,25,07,09,6.20
2019,04,25,07,10,6.30
2019,04,25,07,11,6.30
2019,04,25,07,12,6.40
2019,04,25,07,13,6.40
2019,04,25,07,14,6.50
2019,04,25,07,15,6.60
2019,04,25,07,16,6.70
2019,04,25,07,17,6.70
2019,04,25,07,18,6.80
2019,04,25,07,19,6.80
2019,04,25,07,20,6.80
2019,04,25,07,21,6.80
2019,04,25,07,22,6.90
2019,04,25,07,23,7.00
2019,04,25,07,24,7.00
2019,04,25,07,25,7.10
2019,04,25,07,26,7.20
2019,04,25,07,27,7.20
2019,04,25,07,28,7.30
2019,04,25,07,29,7.40
2019,04,25,07,30,7.40
2019,04,25,07,31,7.50
2019,04,25,07,32,7.50
2019,04,25,07,33,7.60
2019,04,25,07,34,7.60
2019,04,25,07,35,7.70
2019,04,25,07,36,7.80
2019,04,25,07,37,7.80
2019,04,25,07,38,7.90
2019,04,25,07,39,8.00
2019,04,25,07,40,8.00
2019,04,25,07,41,8.00
2019,04,25,07,42,8.10
2019,04,25,07,43,8.10
2019,04,25,07,44,8.10
2019,04,25,07,45,8.20
2019,04,25,07,46,8.20
2019,04,25,07,47,8.30
2019,04,25,07,48,8.40
2019,04,25,07,49,8.40
2019,04,25,07,50,8.50
2019,04,25,07,51,8.50
2019,04,25,07,52,8.60
2019,04,25,07,53,8.60
2019,04,25,07,54,8.60
2019,04,25,07,55,8.70
2019,04,25,07,56,8.70
2019,04,25,07,57,8.70
2019,04,25,07,58,8.70
2019,04,25,07,59,8.80
2019,04,25,08,00,8.80
2019,04,25,08,01,8.80
2019,04,25,08,02,8.90
2019,04,25,08,03,8.90
2019,04,25,08,04,9.00
2019,04,25,08,05,9.00
2019,04,25,08,06,9.10
2019,04,25,08,07,9.20
2019,04,25,08,08,9.20
2019,04,25,08,09,9.20
2019,04,25,08,10,9.20
2019,04,25,08,11,9.30
2019,04,25,08,12,9.30
2019,04,25,08,13,9.40
2019,04,25,08,14,9.40
2019,04,25,08,15,9.40
2019,04,25,08,16,9.40
2019,04,25,08,17,9.50
2019,04,25,08,18,9.50
2019,04,25,08,19,9.60
2019,04,25,08,20,9.60
2019,04,25,08,21,9.70
2019,04,25,08,22,9.70
2019,04,25,08,23,9.70
2019,04,25,08,24,9.70
2019,04,25,08,25,9.70
2019,04,25,08,26,9.70
2019,04,25,08,27,9.70
2019,04,25,08,28,9.70
2019,04,25,08,29,9.70
2019,04,25,08,30,9.70
2019,04,25,08,31,9.70
2019,04,25,08,32,9.70
2019,04,25,08,33,9.70
2019,04,25,08,34,9.70
2019,04,25,08,35,9.70
2019,04,25,08,36,9.70
2019,04,25,08,37,9.80
2019,04,25,08,38,9.80
2019,04,25,08,39,9.80
2019,04,25,08,40,9.80
2019,04,25,08,41,9.70
2019,04,25,08,42,9.80
2019,04,25,08,43,9.80
2019,04,25,08,44,9.80
2019,04,25,08,45,9.90
2019,04,25,08,46,9.90
2019,04,25,08,47,9.90
2019,04,25,08,48,10.00
2019,04,25,08,49,10.10
2019,04,25,08,50,10.10
2019,04,25,08,51,10.10
2019,04,25,08,52,10.10
2019,04,25,08,53,10.10
2019,04,25,08,54,10.10
2019,04,25,08,55,10.10
2019,04,25,08,56,10.10
2019,04,25,08,57,10.20
2019,04,25,08,58,10.20
2019,04,25,08,59,10.30
2019,04,25,09,00,10.40
2019,04,25,09,01,10.50
2019,04,25,09,02,10.60
2019,04,25,09,03,10.70
2019,04,25,09,04,10.70
2019,04,25,09,05,10.80
2019,04,25,09,06,10.80
2019,04,25,09,07,10.70
2019,04,25,09,08,10.70
2019,04,25,09,09,10.70
2019,04,25,09,10,10.70
2019,04,25,09,11,10.80
2019,04,25,09,12,10.80
2019,04,25,09,13,10.90
2019,04,25,09,14,10.90
2019,04,25,09,15,10.90
2019,04,25,09,16,10.90
2019,04,25,09,17,10.90
2019,04,25,09,18,10.90
2019,04,25,09,19,10.90
2019,04,25,09,20,10.90
2019,04,25,09,21,10.90
2019,04,25,09,22,10.90
2019,04,25,09,23,10.90
2019,04,25,09,24,10.90
2019,04,25,09,25,10.90
2019,04,25,09,26,10.90
2019,04,25,09,27,10.90
2019,04,25,09,28,10.90
2019,04,25,09,29,10.90
2019,04,25,09,30,10.90
2019,04,25,09,31,10.90
2019,04,25,09,32,10.80
2019,04,25,09,33,10.80
2019,04,25,09,34,10.90
2019,04,25,09,35,10.90
2019,04,25,09,36,11.00
2019,04,25,09,37,11.10
2019,04,25,09,38,11.20
2019,04,25,09,39,11.20
2019,04,25,09,40,11.30
2019,04,25,09,41,11.30
2019,04,25,09,42,11.30
2019,04,25,09,43,11.30
2019,04,25,09,44,11.30
2019,04,25,09,45,11.30
2019,04,25,09,46,11.40
2019,04,25,09,47,11.40
2019,04,25,09,48,11.40
2019,04,25,09,49,11.40
2019,04,25,09,50,11.40
2019,04,25,09,51,11.50
2019,04,25,09,52,11.60
2019,04,25,09,53,11.50
2019,04,25,09,54,11.60
2019,04,25,09,55,11.60
2019,04,25,09,56,11.70
2019,04,25,09,57,11.70
2019,04,25,09,58,11.70
2019,04,25,09,59,11.70
2019,04,25,10,00,11.80
2019,04,25,10,01,11.80
2019,04,25,10,02,11.80
2019,04,25,10,03,11.80
2019,04,25,10,04,11.80
2019,04,25,10,05,11.80
2019,04,25,10,06,11.90
2019,04,25,10,07,12.00
2019,04,25,10,08,12.10
2019,04,25,10,09,12.10
2019,04,25,10,10,12.10
2019,04,25,10,11,12.20
2019,04,25,10,12,12.20
2019,04,25,10,13,12.20
2019,04,25,10,14,12.30
2019,04,25,10,15,12.30
2019,04,25,10,16,12.30
2019,04,25,10,17,12.30
2019,04,25,10,18,12.40
2019,04,25,10,19,12.30
2019,04,25,10,20,12.30
2019,04,25,10,21,12.40
2019,04,25,10,22,12.40
2019,04,25,10,23,12.50
2019,04,25,10,24,12.60
2019,04,25,10,25,12.60
2019,04,25,10,26,12.70
2019,04,25,10,27,12.70
2019,04,25,10,28,12.80
2019,04,25,10,29,12.70
2019,04,25,10,30,12.60
2019,04,25,10,31,12.60
2019,04,25,10,32,12.60
2019,04,25,10,33,12.60
2019,04,25,10,34,12.70
2019,04,25,10,35,12.90
2019,04,25,10,36,13.00
2019,04,25,10,37,13.10
2019,04,25,10,38,13.20
2019,04,25,10,39,13.30
2019,04,25,10,40,13.30
2019,04,25,10,41,13.30
2019,04,25,10,42,13.30
2019,04,25,10,43,13.30
2019,04,25,10,44,13.30
2019,04,25,10,45,13.40
2019,04,25,10,46,13.40
2019,04,25,10,47,13.40
2019,04,25,10,48,13.40
2019,04,25,10,49,13.30
2019,04,25,10,50,13.30
2019,04,25,10,51,13.30
2019,04,25,10,52,13.30
2019,04,25,10,53,13.30
2019,04,25,10,54,13.20
2019,04,25,10,55,13.10
2019,04,25,10,56,13.00
2019,04,25,10,57,13.00
2019,04,25,10,58,13.10
2019,04,25,10,59,13.20
2019,04,25,11,00,13.20
2019,04,25,11,01,13.30
2019,04,25,11,02,13.40
2019,04,25,11,03,13.40
2019,04,25,11,04,13.30
2019,04,25,11,05,13.30
2019,04,25,11,06,13.30
2019,04,25,11,07,13.20
2019,04,25,11,08,13.30
2019,04,25,11,09,13.30
2019,04,25,11,10,13.30
2019,04,25,11,11,13.30
2019,04,25,11,12,13.50
2019,04,25,11,13,13.60
2019,04,25,11,14,13.60
2019,04,25,11,15,13.60
2019,04,25,11,16,13.60
2019,04,25,11,17,13.60
2019,04,25,11,18,13.60
2019,04,25,11,19,13.50
2019,04,25,11,20,13.40
2019,04,25,11,21,13.40
2019,04,25,11,22,13.50
2019,04,25,11,23,13.60
2019,04,25,11,24,13.60
2019,04,25,11,25,13.60
2019,04,25,11,26,13.50
2019,04,25,11,27,13.50
2019,04,25,11,28,13.50
2019,04,25,11,29,13.50
2019,04,25,11,30,13.40
2019,04,25,11,31,13.40
2019,04,25,11,32,13.50
2019,04,25,11,33,13.50
2019,04,25,11,34,13.50
2019,04,25,11,35,13.50
2019,04,25,11,36,13.60
2019,04,25,11,37,13.70
2019,04,25,11,38,13.80
2019,04,25,11,39,13.90
2019,04,25,11,40,14.00
2019,04,25,11,41,14.00
2019,04,25,11,42,13.90
2019,04,25,11,43,13.80
2019,04,25,11,44,13.70
2019,04,25,11,45,13.80
2019,04,25,11,46,13.80
2019,04,25,11,47,13.80
2019,04,25,11,48,13.70
2019,04,25,11,49,13.70
2019,04,25,11,50,13.70
2019,04,25,11,51,13.90
2019,04,25,11,52,13.90
2019,04,25,11,53,14.00
2019,04,25,11,54,14.00
2019,04,25,11,55,13.90
2019,04,25,11,56,13.80
2019,04,25,11,57,13.90
2019,04,25,11,58,14.10
2019,04,25,11,59,14.20
2019,04,25,12,00,14.20
2019,04,25,12,01,14.40
2019,04,25,12,02,14.40
2019,04,25,12,03,14.50
2019,04,25,12,04,14.60
2019,04,25,12,05,14.70
2019,04,25,12,06,14.90
2019,04,25,12,07,15.00
2019,04,25,12,08,14.90
2019,04,25,12,09,14.80
2019,04,25,12,10,14.70
2019,04,25,12,11,14.60
2019,04,25,12,12,14.50
2019,04,25,12,13,14.50
2019,04,25,12,14,14.50
2019,04,25,12,15,14.50
2019,04,25,12,16,14.40
2019,04,25,12,17,14.40
2019,04,25,12,18,14.40
2019,04,25,12,19,14.20
2019,04,25,12,20,14.20
2019,04,25,12,21,14.30
2019,04,25,12,22,14.30
2019,04,25,12,23,14.20
2019,04,25,12,24,14.20
2019,04,25,12,25,14.10
2019,04,25,12,26,14.20
2019,04,25,12,27,14.30
2019,04,25,12,28,14.50
2019,04,25,12,29,14.50
2019,04,25,12,30,14.50
2019,04,25,12,31,14.50
2019,04,25,12,32,14.60
2019,04,25,12,33,14.70
2019,04,25,12,34,14.70
2019,04,25,12,35,14.80
2019,04,25,12,36,14.80
2019,04,25,12,37,14.90
2019,04,25,12,38,15.10
2019,04,25,12,39,15.20
2019,04,25,12,40,15.10
2019,04,25,12,41,15.00
2019,04,25,12,42,15.00
2019,04,25,12,43,15.10
2019,04,25,12,44,15.00
2019,04,25,12,45,14.90
2019,04,25,12,46,14.80
2019,04,25,12,47,14.80
2019,04,25,12,48,14.90
2019,04,25,12,49,15.00
2019,04,25,12,50,15.10
2019,04,25,12,51,15.10
2019,04,25,12,52,15.30
2019,04,25,12,53,15.50
2019,04,25,12,54,15.40
2019,04,25,12,55,15.30
2019,04,25,12,56,15.40
2019,04,25,12,57,15.50
2019,04,25,12,58,15.60
2019,04,25,12,59,15.60
2019,04,25,13,00,15.70
2019,04,25,13,01,15.60
2019,04,25,13,02,15.50
2019,04,25,13,03,15.40
2019,04,25,13,04,15.40
2019,04,25,13,05,15.40
2019,04,25,13,06,15.20
2019,04,25,13,07,15.10
2019,04,25,13,08,15.00
2019,04,25,13,09,15.10
2019,04,25,13,10,15.30
2019,04,25,13,11,15.40
2019,04,25,13,12,15.50
2019,04,25,13,13,15.50
2019,04,25,13,14,15.50
2019,04,25,13,15,15.50
2019,04,25,13,16,15.40
2019,04,25,13,17,15.30
2019,04,25,13,18,15.30
2019,04,25,13,19,15.20
2019,04,25,13,20,15.30
2019,04,25,13,21,15.30
2019,04,25,13,22,15.30
2019,04,25,13,23,15.40
2019,04,25,13,24,15.40
2019,04,25,13,25,15.20
2019,04,25,13,26,15.10
2019,04,25,13,27,15.20
2019,04,25,13,28,15.30
2019,04,25,13,29,15.50
2019,04,25,13,30,15.60
2019,04,25,13,31,15.50
2019,04,25,13,32,15.50
2019,04,25,13,33,15.50
2019,04,25,13,34,15.50
2019,04,25,13,35,15.50
2019,04,25,13,36,15.40
2019,04,25,13,37,15.20
2019,04,25,13,38,15.10
2019,04,25,13,39,15.20
2019,04,25,13,40,15.20
2019,04,25,13,41,15.10
2019,04,25,13,42,15.00
2019,04,25,13,43,15.00
2019,04,25,13,44,15.10
2019,04,25,13,45,15.10
2019,04,25,13,46,15.00
2019,04,25,13,47,15.00
2019,04,25,13,48,15.10
2019,04,25,13,49,15.20
2019,04,25,13,50,15.30
2019,04,25,13,51,15.40
2019,04,25,13,52,15.50
2019,04,25,13,53,15.60
2019,04,25,13,54,15.70
2019,04,25,13,55,15.80
2019,04,25,13,56,15.70
2019,04,25,13,57,15.70
2019,04,25,13,58,15.70
2019,04,25,13,59,15.70
2019,04,25,14,00,15.80
2019,04,25,14,01,15.80
2019,04,25,14,02,15.80
2019,04,25,14,03,15.80
2019,04,25,14,04,15.80
2019,04,25,14,05,15.80
2019,04,25,14,06,15.80
2019,04,25,14,07,15.80
2019,04,25,14,08,15.80
2019,04,25,14,09,15.70
2019,04,25,14,10,15.50
2019,04,25,14,11,15.40
2019,04,25,14,12,15.50
2019,04,25,14,13,15.50
2019,04,25,14,14,15.50
2019,04,25,14,15,15.60
2019,04,25,14,16,15.60
2019,04,25,14,17,15.60
2019,04,25,14,18,15.60
2019,04,25,14,19,15.70
2019,04,25,14,20,15.80
2019,04,25,14,21,15.80
2019,04,25,14,22,15.80
2019,04,25,14,23,15.90
2019,04,25,14,24,16.00
2019,04,25,14,25,15.90
2019,04,25,14,26,15.80
2019,04,25,14,27,15.80
2019,04,25,14,28,15.80
2019,04,25,14,29,15.80
2019,04,25,14,30,15.80
2019,04,25,14,31,15.90
2019,04,25,14,32,16.00
2019,04,25,14,33,16.00
2019,04,25,14,34,16.10
2019,04,25,14,35,16.10
2019,04,25,14,36,16.10
2019,04,25,14,37,16.20
2019,04,25,14,38,16.30
2019,04,25,14,39,16.20
2019,04,25,14,40,16.20
2019,04,25,14,41,16.10
2019,04,25,14,42,16.10
2019,04,25,14,43,16.20
2019,04,25,14,44,16.10
2019,04,25,14,45,16.10
2019,04,25,14,46,16.10
2019,04,25,14,47,16.10
2019,04,25,14,48,16.00
2019,04,25,14,49,15.90
2019,04,25,14,50,16.10
2019,04,25,14,51,16.20
2019,04,25,14,52,16.20
2019,04,25,14,53,16.20
2019,04,25,14,54,16.10
2019,04,25,14,55,16.00
2019,04,25,14,56,15.90
2019,04,25,14,57,15.90
2019,04,25,14,58,15.90
2019,04,25,14,59,16.00
2019,04,25,15,00,16.10
2019,04,25,15,01,16.20
2019,04,25,15,02,16.20
2019,04,25,15,03,16.10
2019,04,25,15,04,16.10
2019,04,25,15,05,15.90
2019,04,25,15,06,15.80
2019,04,25,15,07,15.80
2019,04,25,15,08,15.90
2019,04,25,15,09,16.00
2019,04,25,15,10,16.10
2019,04,25,15,11,16.20
2019,04,25,15,12,16.30
2019,04,25,15,13,16.30
2019,04,25,15,14,16.20
2019,04,25,15,15,16.20
2019,04,25,15,16,16.30
2019,04,25,15,17,16.30
2019,04,25,15,18,16.30
2019,04,25,15,19,16.30
2019,04,25,15,20,16.30
2019,04,25,15,21,16.20
2019,04,25,15,22,16.20
2019,04,25,15,23,16.20
2019,04,25,15,24,16.20
2019,04,25,15,25,16.30
2019,04,25,15,26,16.30
2019,04,25,15,27,16.40
2019,04,25,15,28,16.20
2019,04,25,15,29,15.90
2019,04,25,15,30,15.70
2019,04,25,15,31,15.60
2019,04,25,15,32,15.50
2019,04,25,15,33,15.40
2019,04,25,15,34,15.30
2019,04,25,15,35,15.10
2019,04,25,15,36,14.90
2019,04,25,15,37,14.80
2019,04,25,15,38,14.60
2019,04,25,15,39,14.50
2019,04,25,15,40,14.40
2019,04,25,15,41,14.30
2019,04,25,15,42,14.20
2019,04,25,15,43,14.20
2019,04,25,15,44,14.20
2019,04,25,15,45,14.20
2019,04,25,15,46,14.20
2019,04,25,15,47,14.20
2019,04,25,15,48,14.20
2019,04,25,15,49,14.20
2019,04,25,15,50,14.20
2019,04,25,15,51,14.20
2019,04,25,15,52,14.10
2019,04,25,15,53,14.10
2019,04,25,15,54,14.10
2019,04,25,15,55,14.00
2019,04,25,15,56,14.00
2019,04,25,15,57,13.90
2019,04,25,15,58,13.90
2019,04,25,15,59,13.90
2019,04,25,16,00,13.90
2019,04,25,16,01,13.90
2019,04,25,16,02,13.80
2019,04,25,16,03,13.80
2019,04,25,16,04,13.80
2019,04,25,16,05,13.80
2019,04,25,16,06,13.70
2019,04,25,16,07,13.70
2019,04,25,16,08,13.70
2019,04,25,16,09,13.70
2019,04,25,16,10,13.70
2019,04,25,16,11,13.70
2019,04,25,16,12,13.70
2019,04,25,16,13,13.60
2019,04,25,16,14,13.60
2019,04,25,16,15,13.50
2019,04,25,16,16,13.60
2019,04,25,16,17,13.60
2019,04,25,16,18,13.60
2019,04,25,16,19,13.70
2019,04,25,16,20,13.70
2019,04,25,16,21,13.70
2019,04,25,16,22,13.60
2019,04,25,16,23,13.50
2019,04,25,16,24,13.50
2019,04,25,16,25,13.40
2019,04,25,16,26,13.40
2019,04,25,16,27,13.40
2019,04,25,16,28,13.40
2019,04,25,16,29,13.40
2019,04,25,16,30,13.40
2019,04,25,16,31,13.30
2019,04,25,16,32,13.30
2019,04,25,16,33,13.30
2019,04,25,16,34,13.30
2019,04,25,16,35,13.30
2019,04,25,16,36,13.30
2019,04,25,16,37,13.30
2019,04,25,16,38,13.30
2019,04,25,16,39,13.30
2019,04,25,16,40,13.30
2019,04,25,16,41,13.20
2019,04,25,16,42,13.20
2019,04,25,16,43,13.20
2019,04,25,16,44,13.20
2019,04,25,16,45,13.30
2019,04,25,16,46,13.30
2019,04,25,16,47,13.30
2019,04,25,16,48,13.40
2019,04,25,16,49,13.40
2019,04,25,16,50,13.50
2019,04,25,16,51,13.50
2019,04,25,16,52,13.50
2019,04,25,16,53,13.50
2019,04,25,16,54,13.40
2019,04,25,16,55,13.40
2019,04,25,16,56,13.30
2019,04,25,16,57,13.40
2019,04,25,16,58,13.40
2019,04,25,16,59,13.40
2019,04,25,17,00,13.30
2019,04,25,17,01,13.40
2019,04,25,17,02,13.40
2019,04,25,17,03,13.40
2019,04,25,17,04,13.40
2019,04,25,17,05,13.50
2019,04,25,17,06,13.50
2019,04,25,17,07,13.60
2019,04,25,17,08,13.70
2019,04,25,17,09,13.70
2019,04,25,17,10,13.70
2019,04,25,17,11,13.70
2019,04,25,17,12,13.70
2019,04,25,17,13,13.70
2019,04,25,17,14,13.70
2019,04,25,17,15,13.70
2019,04,25,17,16,13.70
2019,04,25,17,17,13.70
2019,04,25,17,18,13.70
2019,04,25,17,19,13.80
2019,04,25,17,20,13.90
2019,04,25,17,21,13.90
2019,04,25,17,22,13.90
2019,04,25,17,23,13.90
2019,04,25,17,24,13.90
2019,04,25,17,25,13.90
2019,04,25,17,26,13.90
2019,04,25,17,27,14.00
2019,04,25,17,28,14.00
2019,04,25,17,29,14.10
2019,04,25,17,30,14.10
2019,04,25,17,31,14.10
2019,04,25,17,32,14.10
2019,04,25,17,33,14.20
2019,04,25,17,34,14.20
2019,04,25,17,35,14.10
2019,04,25,17,36,14.00
2019,04,25,17,37,14.00
2019,04,25,17,38,13.90
2019,04,25,17,39,13.90
2019,04,25,17,40,13.80
2019,04,25,17,41,13.70
2019,04,25,17,42,13.60